Location: Casilda
(33.0440°S, 61.1680°W)
Time: 08:54:04
(UTC-03:00)

ISS - Pass Details

Date: 16 December 2018
Orbit: 401 x 408 km, 51.6° (Epoch: 16 December)

Event Time Altitude Azimuth Distance (km) Brightness Sun altitude
Rises 22:47:08 0° 285° (WNW) 2,325 0.3 -25.3°
Reaches altitude 10° 22:49:31 10° 269° (W) 1,473 -0.6 -25.5°
Maximum altitude 22:52:10 22° 215° (SW) 955 -1.2 -25.8°
Drops below altitude 10° 22:54:51 10° 162° (SSE) 1,488 -0.5 -26.1°
Sets 22:57:17 0° 146° (SE) 2,356 0.4 -26.4°
